15min,AgWx,evansfrm,411,09APR2018:00:00:00,42.9,12.9,42.6,43.0,43.4,44.4,43.0,57,58,53,0.539,29.1,29.9,28.1,0,1.0,10,12,3.6,0.00002,0.00004,47.8,46.6,32,0,0,46.4,20.05,0.00,0.00
15min,AgWx,evansfrm,411,09APR2018:00:15:00,42.4,12.89,42.7,43.2,42.8,43.2,42.4,59,61,54,0.515,29.3,30.4,27.8,3.157,0.7,25,35,3.2,-0.00001,-0.00001,47.8,46.8,32,0,0,46.4,20.05,0.00,0.00
15min,AgWx,evansfrm,411,09APR2018:00:30:00,42.3,12.88,44.0,44.3,43.8,44.4,42.7,54,62,51,0.519,28.4,30.7,27.0,1.337,3.1,303,43,7.9,0.00016,0.00023,47.6,46.6,32,0,0,46.3,20.05,0.00,0.00
15min,AgWx,evansfrm,411,09APR2018:00:45:00,42.3,12.87,43.8,44.1,44.2,44.6,44.1,52,53,50,0.508,27.6,28.3,26.9,0,1.7,338,30,5.6,0.00009,0.00014,47.5,46.6,32,0,0,46.6,20.05,0.00,0.00
15min,AgWx,evansfrm,411,09APR2018:01:00:00,42.2,12.87,43.6,44.1,43.9,44.2,43.7,53,54,51,0.514,27.8,28.4,27.2,2.192,2.7,293,20,5.0,0.00015,0.00022,47.4,46.6,32,0,0,46.3,20.05,0.00,0.00
15min,AgWx,evansfrm,411,09APR2018:01:15:00,42.1,12.86,42.7,43.1,42.8,44.0,42.1,58,62,52,0.518,28.9,30.2,27.3,2.543,2.9,87,27,5.7,0.00013,0.00020,47.2,46.6,32,0,0,45.9,20.05,0.00,0.00
15min,AgWx,evansfrm,411,09APR2018:01:30:00,42.0,12.79,43.5,44.1,43.1,44.2,42.1,57,64,51,0.499,28.7,30.9,26.8,0.57,2.9,145,47,5.5,0.00014,0.00020,47.1,46.4,32,0,0,45.6,20.05,0.00,0.00
15min,AgWx,evansfrm,411,09APR2018:01:45:00,41.6,12.84,43.5,43.8,44.0,44.6,43.6,51,54,49,0.511,27.2,28.1,26.3,1.732,3.2,230,65,11.7,0.00018,0.00026,47.1,46.4,32,0,0,45.1,20.05,0.00,0.00
15min,AgWx,evansfrm,411,09APR2018:02:00:00,41.2,12.83,42.1,41.9,43.4,43.8,41.9,53,58,51,0.519,27.4,28.8,26.8,1.82,1.0,199,39,2.9,0.00002,0.00004,46.9,46.4,32,0,0,44.3,20.05,0.00,0.00
15min,AgWx,evansfrm,411,09APR2018:02:15:00,40.5,12.82,41.1,41.6,41.7,42.4,40.6,58,62,55,0.547,27.9,29.3,27.2,2.346,2.6,143,19,3.7,0.00011,0.00017,46.8,46.2,32,0,0,42.8,20.05,0.00,0.00
15min,AgWx,evansfrm,411,09APR2018:02:30:00,39.4,12.81,38.2,38.6,38.5,41.3,37.1,68,75,62,0.524,29.0,29.9,28.2,2.85,2.8,136,8.8,4.1,0.00008,0.00011,46.8,46.4,32,0,0,40.1,20.06,0.00,0.00
15min,AgWx,evansfrm,411,09APR2018:02:45:00,38.4,12.8,37.1,37.3,37.5,39.1,36.0,69,74,65,0.524,28.4,28.9,27.7,3.157,3.3,99,25,6.2,0.00008,0.00012,46.6,46.2,32,0,0,39.1,20.06,0.00,0.00
15min,AgWx,evansfrm,411,09APR2018:03:00:00,37.7,12.79,38.8,38.7,39.1,40.9,37.1,64,70,58,0.524,28.1,28.7,27.2,0.066,2.7,57,38,4.8,0.00009,0.00013,46.4,46.0,32,0,0,40.1,20.06,0.00,0.00
15min,AgWx,evansfrm,411,09APR2018:03:15:00,37.0,12.78,35.3,35.6,37.2,38.7,35.2,70,73,66,0.512,28.2,29.0,27.3,2.938,2.2,54,61,4.0,0.00004,0.00007,46.3,46.2,32,0,0,38.8,20.05,0.00,0.00
15min,AgWx,evansfrm,411,09APR2018:03:30:00,36.2,12.77,37.4,37.4,36.9,38.2,35.3,70,73,66,0.515,27.9,28.3,27.5,2.061,2.2,70,32,4.1,0.00005,0.00007,46.2,46.0,32,0,0,38.7,20.05,0.00,0.00
15min,AgWx,evansfrm,411,09APR2018:03:45:00,35.6,12.77,35.8,36.0,36.2,37.4,35.6,71,74,68,0.524,27.9,28.2,27.3,1.074,2.2,47,31,3.6,0.00004,0.00007,46.1,46.2,32,0,0,38.1,20.06,0.00,0.00
15min,AgWx,evansfrm,411,09APR2018:04:00:00,35.1,12.75,36.9,36.9,36.3,37.0,35.6,72,74,70,0.522,28.1,28.4,27.9,3.902,3.1,59,16,5.6,0.00007,0.00010,45.9,45.7,32,0,0,37.8,20.05,0.00,0.00
15min,AgWx,evansfrm,411,09APR2018:04:15:00,34.8,12.74,35.8,35.7,36.8,37.8,35.7,70,73,67,0.519,27.8,28.2,27.6,3.332,3.0,72,18,4.3,0.00007,0.00011,45.7,45.9,32,0,0,38.4,20.05,0.00,0.00
15min,AgWx,evansfrm,411,09APR2018:04:30:00,34.3,12.74,35.2,35.6,35.4,36.1,34.8,74,75,72,0.518,27.9,28.2,27.6,1.469,1.6,31,49,4.9,0.00001,0.00003,45.5,45.9,32,0,0,37.4,20.05,0.00,0.00
15min,AgWx,evansfrm,411,09APR2018:04:45:00,33.7,12.73,34.7,34.8,35.2,35.8,34.6,75,76,73,0.516,28.0,28.2,27.7,2.872,1.3,23,21,3.3,-0.00000,0.00000,45.4,45.7,32,0,0,37.1,20.05,0.00,0.00
15min,AgWx,evansfrm,411,09APR2018:05:00:00,33.5,12.72,35.3,35.6,35.9,37.3,34.9,72,77,68,0.528,27.8,28.8,27.0,1.228,2.5,85,64,5.6,0.00005,0.00008,45.3,45.7,32,0,0,37.5,20.05,0.00,0.00
15min,AgWx,evansfrm,411,09APR2018:05:15:00,33.0,12.72,34.1,34.4,34.5,35.6,33.4,78,82,75,0.528,28.5,28.8,28.1,2.674,2.2,224,19,5.7,0.00002,0.00003,45.1,45.7,32,0,0,35.6,20.05,0.00,0.00
15min,AgWx,evansfrm,411,09APR2018:05:30:00,32.8,12.71,34.4,34.6,34.9,35.2,34.4,78,79,76,0.530,28.6,28.9,28.2,4.209,3.1,192,40,5.3,0.00004,0.00006,44.9,45.7,32,0,0,35.8,20.05,0.00,0.00
15min,AgWx,evansfrm,411,09APR2018:05:45:00,32.7,12.71,34.9,35.0,34.8,35.6,34.0,78,80,76,0.536,28.6,28.9,28.3,3.31,2.8,105,19,5.7,0.00003,0.00005,44.8,45.5,32,0,0,36.0,20.05,0.00,0.00
15min,AgWx,evansfrm,411,09APR2018:06:00:00,32.5,12.71,33.5,33.5,34.4,35.7,33.2,78,81,74,0.519,28.3,29.1,27.3,3.398,3.3,120,10,4.7,0.00005,0.00007,44.7,45.5,32,3,0,36.1,20.05,0.00,0.00
15min,AgWx,evansfrm,411,09APR2018:06:15:00,32.3,12.71,33.4,33.3,34.5,35.8,33.3,78,82,75,0.518,28.4,29.2,27.6,1.798,2.5,126,16,3.9,-0.00006,-0.00000,44.5,45.3,32,9,0,36.5,20.05,0.00,0.00
15min,AgWx,evansfrm,411,09APR2018:06:30:00,31.9,12.71,33.5,34.1,32.9,34.1,32.5,84,86,80,0.531,28.6,29.0,27.8,1.315,1.3,160,21,2.6,0.00000,0.00003,44.3,45.5,32,15,0,35.6,20.05,0.00,0.00
15min,AgWx,evansfrm,411,09APR2018:06:45:00,31.7,12.72,32.7,32.8,33.7,34.2,32.8,81,82,79,0.513,28.3,28.6,27.7,2.674,1.4,141,35,3.0,0.00012,0.00017,44.2,45.1,32,21,0,36.4,20.05,0.00,0.00
15min,AgWx,evansfrm,411,09APR2018:07:00:00,32.7,12.77,35.7,35.8,34.0,35.8,32.7,82,84,79,0.569,28.9,30.2,27.7,0,1.1,73,3.0,2.7,0.00012,0.00015,44.1,45.1,32,116,0,42.1,20.05,0.00,0.00
15min,AgWx,evansfrm,411,09APR2018:07:15:00,36.0,12.89,39.3,39.0,37.3,39.0,35.9,76,80,72,0.591,30.3,31.2,29.6,0,0.6,78,0.0,1.9,0.00042,0.00047,44.0,45.1,32,184,0,51.6,20.05,0.00,0.00
15min,AgWx,evansfrm,411,09APR2018:07:30:00,39.8,13.11,41.4,40.6,41.2,42.5,39.1,67,75,61,0.566,30.9,33.4,29.2,1.403,0.3,176,0.8,1.7,0.00067,0.00073,43.9,44.8,32,231,0,58.5,20.05,0.00,0.00
15min,AgWx,evansfrm,411,09APR2018:07:45:00,42.9,13.46,40.7,40.6,40.2,40.7,39.8,69,73,65,0.590,30.7,32.4,29.4,2.872,2.0,167,8.5,2.9,0.00095,0.00110,43.7,44.6,32,280,0,57.9,20.05,0.00,0.00
15min,AgWx,evansfrm,411,09APR2018:08:00:00,45.2,13.76,42.0,42.2,41.1,42.2,40.4,65,71,61,0.576,30.2,32.2,28.9,1.337,2.4,153,11,3.4,0.00121,0.00141,43.6,44.8,32,327,0,58.4,20.05,0.00,0.00
15min,AgWx,evansfrm,411,09APR2018:08:15:00,47.6,14.04,42.4,42.5,42.5,43.0,42.2,60,63,57,0.550,29.5,30.8,28.3,2.85,2.2,157,14,4.1,0.00149,0.00171,43.5,44.6,32,376,0,62.2,20.05,0.00,0.00
15min,AgWx,evansfrm,411,09APR2018:08:30:00,49.9,14.16,44.2,43.9,43.3,43.9,42.3,60,63,56,0.544,30.2,31.5,28.9,0.066,1.6,152,28,3.5,0.00174,0.00195,43.5,44.6,32,425,0,64.3,20.05,0.00,0.00
15min,AgWx,evansfrm,411,09APR2018:08:45:00,52.5,14.26,46.0,45.5,45.0,46.0,43.9,55,59,50,0.572,29.9,32.0,28.0,0.044,0.9,81,52,2.7,0.00202,0.00222,43.5,44.4,32,471,0,68.3,20.05,0.00,0.00
15min,AgWx,evansfrm,411,09APR2018:09:00:00,55.2,14.51,46.6,44.3,44.7,45.5,44.0,56,62,52,0.523,29.9,33.0,27.8,0.526,1.7,265,35,3.9,0.00225,0.00252,43.6,44.2,32,515,0,69.7,20.05,0.00,0.00
15min,AgWx,evansfrm,411,09APR2018:09:15:00,57.4,14.55,47.8,45.9,45.2,46.2,44.3,54,59,51,0.556,29.7,31.5,28.0,1.929,1.2,279,48,3.7,0.00249,0.00274,43.7,44.6,32,556,0,71.3,20.05,0.00,0.00
15min,AgWx,evansfrm,411,09APR2018:09:30:00,59.1,14.55,47.1,45.8,45.8,46.6,44.8,55,60,51,0.553,30.6,33.4,29.0,2.828,2.0,274,56,4.9,0.00272,0.00304,43.8,44.4,32,596,0,71.4,20.05,0.00,0.00
15min,AgWx,evansfrm,411,09APR2018:09:45:00,60.0,14.54,46.9,46.8,46.2,47.0,45.1,54,59,51,0.563,30.4,33.1,28.7,2.28,1.9,5.3,72,4.2,0.00294,0.00327,43.9,44.1,32,633,0,71.8,20.05,0.00,0.00
15min,AgWx,evansfrm,411,09APR2018:10:00:00,61.0,14.51,47.2,46.5,46.9,47.8,46.4,53,61,49,0.556,30.6,34.9,28.1,1.425,2.1,145,78,6.0,0.00317,0.00353,44.2,44.2,32,671,0,75.5,20.05,0.00,0.00
15min,AgWx,evansfrm,411,09APR2018:10:15:00,62.1,14.49,48.8,48.3,47.8,48.8,46.5,47,53,43,0.502,28.6,31.4,26.9,2.017,1.4,39,65,4.3,0.00343,0.00378,44.3,44.2,32,709,0,77.6,20.05,0.00,0.00
15min,AgWx,evansfrm,411,09APR2018:10:30:00,62.5,14.49,49.1,48.6,48.4,49.0,47.7,48,54,43,0.572,29.6,32.6,27.0,2.981,3.4,104,82,6.4,0.00360,0.00411,44.6,44.2,32,739,0,75.4,20.05,0.00,0.00
15min,AgWx,evansfrm,411,09APR2018:10:45:00,62.1,14.46,50.2,49.7,48.4,49.7,47.8,47,54,43,0.638,29.1,33.4,26.4,3.573,3.3,155,74,7.1,0.00373,0.00425,45.0,44.4,32,761,0,75.0,20.05,0.00,0.00
15min,AgWx,evansfrm,411,09APR2018:11:00:00,62.0,14.49,49.3,49.8,49.4,50.0,48.7,44,51,39,0.484,28.6,32.1,25.7,1.074,3.3,69,56,6.1,0.00395,0.00449,45.3,44.4,32,790,0,76.5,20.05,0.00,0.00
15min,AgWx,evansfrm,411,09APR2018:11:15:00,62.2,14.46,51.2,49.6,50.1,50.8,49.5,43,54,38,0.497,28.3,34.5,25.0,3.617,2.9,288,52,6.1,0.00414,0.00468,45.8,44.2,32,817,0,77.6,20.05,0.00,0.00
15min,AgWx,evansfrm,411,09APR2018:11:30:00,62.0,14.49,50.3,49.8,50.2,51.1,49.6,41,48,37,0.479,27.3,31.2,25.3,3.617,3.3,356,56,6.8,0.00430,0.00489,46.2,44.2,32,847,0,77.0,20.05,0.00,0.00
15min,AgWx,evansfrm,411,09APR2018:11:45:00,61.7,14.49,50.9,50.4,51.1,52.5,49.9,42,52,35,0.459,28.4,34.8,25.0,2.916,3.1,74,60,5.9,0.00446,0.00505,46.6,44.4,32,867,0,78.5,20.05,0.00,0.00
15min,AgWx,evansfrm,411,09APR2018:12:00:00,61.3,14.46,51.0,50.5,51.3,52.5,50.2,41,51,37,0.488,28.3,34.0,25.0,7.585,3.9,45,87,9.1,0.00439,0.00503,47.2,44.6,32,845,0,79.0,20.05,0.00,0.00
15min,AgWx,evansfrm,411,09APR2018:12:15:00,60.3,14.46,52.3,51.5,51.3,52.0,50.5,38,45,33,0.525,26.5,30.1,23.0,0.636,3.6,326,54,8.8,0.00457,0.00523,47.7,44.6,32,880,0,76.0,20.05,0.00,0.00
15min,AgWx,evansfrm,411,09APR2018:12:30:00,59.4,14.46,52.3,51.3,51.6,52.4,51.0,38,47,35,0.459,26.6,31.8,24.4,0,3.7,302,51,7.5,0.00460,0.00527,48.1,45.0,32,883,0,78.4,20.05,0.00,0.00
15min,AgWx,evansfrm,411,09APR2018:12:45:00,58.7,14.47,52.3,51.9,52.4,53.5,51.4,37,43,34,0.466,27.1,31.6,24.2,3.836,2.8,28,44,7.7,0.00468,0.00528,48.7,44.8,32,885,0,82.3,20.05,0.00,0.00
15min,AgWx,evansfrm,411,09APR2018:13:00:00,58.3,14.45,52.9,52.8,52.4,52.9,51.5,36,43,31,0.467,26.2,30.5,23.1,1.622,2.8,31,50,6.3,0.00471,0.00533,49.0,45.1,32,892,0,80.0,20.05,0.00,0.00
15min,AgWx,evansfrm,411,09APR2018:13:15:00,58.4,14.4,53.1,53.7,53.1,54.0,52.2,36,39,32,0.538,26.7,29.0,24.5,4.757,2.9,33,90,6.5,0.00476,0.00538,49.5,45.1,32,891,0,83.4,20.05,0.00,0.00
15min,AgWx,evansfrm,411,09APR2018:13:30:00,59.2,14.37,54.0,53.9,53.8,54.8,53.1,37,44,33,0.529,28.5,32.8,25.4,2.346,2.5,139,53,6.0,0.00482,0.00541,50.0,45.5,32,894,0,84.5,20.05,0.00,0.00
15min,AgWx,evansfrm,411,09APR2018:13:45:00,60.1,13.97,54.3,53.9,54.0,54.6,53.2,36,41,32,0.501,27.7,31.6,25.3,2.28,2.0,221,76,5.8,0.00376,0.00423,50.6,45.7,32,667,0,81.2,20.05,0.00,0.00
15min,AgWx,evansfrm,411,09APR2018:14:00:00,60.9,14.33,55.6,55.7,54.4,55.7,53.5,37,44,33,0.543,28.7,33.3,25.8,5.897,3.4,251,43,7.1,0.00451,0.00517,51.1,45.9,32,839,0,79.4,20.05,0.00,0.00
15min,AgWx,evansfrm,411,09APR2018:14:15:00,62.0,14.3,54.7,54.3,54.5,55.5,54.0,36,41,33,0.489,27.8,31.5,25.5,2.916,3.5,283,46,8.2,0.00457,0.00525,51.5,46.0,32,838,0,80.2,20.05,0.00,0.00
15min,AgWx,evansfrm,411,09APR2018:14:30:00,63.1,14.28,55.0,53.5,54.2,55.0,53.5,36,43,32,0.498,27.7,32.6,25.0,1.951,3.9,321,29,7.2,0.00370,0.00437,52.0,46.4,32,652,0,75.4,20.05,0.00,0.00
15min,AgWx,evansfrm,411,09APR2018:14:45:00,63.5,14.3,55.2,55.4,54.8,55.4,53.6,37,44,32,0.543,28.7,33.3,26.0,0.417,4.0,249,35,6.1,0.00383,0.00451,52.6,46.4,32,691,0,73.5,20.06,0.00,0.00
15min,AgWx,evansfrm,411,09APR2018:15:00:00,65.2,14.29,57.3,55.9,55.8,56.9,55.1,35,40,32,0.503,28.7,32.7,26.2,2.631,3.0,278,34,7.0,0.00438,0.00502,52.9,46.4,32,792,0,81.9,20.05,0.00,0.00
15min,AgWx,evansfrm,411,09APR2018:15:15:00,65.9,13.67,54.1,54.1,55.5,57.0,54.1,37,41,33,0.527,29.5,31.8,27.3,5.7,5.0,210,29,8.6,0.00280,0.00351,53.4,46.9,32,431,0,74.3,20.06,0.00,0.00
15min,AgWx,evansfrm,411,09APR2018:15:30:00,64.0,14.31,54.9,55.4,54.0,55.4,53.6,38,43,35,0.552,28.7,33.0,26.6,3.003,2.8,177,43,7.1,0.00181,0.00225,53.7,47.1,32,270,0,64.1,20.06,0.00,0.00
15min,AgWx,evansfrm,411,09APR2018:15:45:00,64.8,14.31,55.4,55.4,55.6,56.8,54.8,35,40,33,0.512,28.6,32.2,26.8,3.201,3.3,155,39,9.7,0.00358,0.00418,54.0,46.9,32,653,0,79.5,20.06,0.00,0.00
15min,AgWx,evansfrm,411,09APR2018:16:00:00,65.9,14.28,57.0,57.3,56.2,57.3,55.2,35,40,32,0.552,28.9,32.8,26.4,4.209,4.7,181,46,11.3,0.00378,0.00454,54.3,47.5,32,668,0,78.0,20.06,0.00,0.00
15min,AgWx,evansfrm,411,09APR2018:16:15:00,66.0,14.28,56.6,56.8,56.3,57.3,55.6,35,40,31,0.519,28.9,32.2,26.5,5.283,6.4,217,38,13.7,0.00326,0.00415,54.6,47.1,32,552,0,72.9,20.06,0.00,0.00
15min,AgWx,evansfrm,411,09APR2018:16:30:00,65.7,14.28,55.6,56.0,56.5,57.3,55.9,35,38,32,0.528,28.9,31.5,27.0,6.73,6.6,231,33,10.9,0.00318,0.00409,55.0,48.0,32,532,0,71.6,20.06,0.00,0.00
15min,AgWx,evansfrm,411,09APR2018:16:45:00,65.2,14.27,55.8,56.3,55.9,56.5,55.2,34,37,31,0.506,27.9,30.4,25.7,7.651,5.5,218,36,9.5,0.00261,0.00338,55.1,47.7,32,443,0,69.0,20.06,0.00,0.00
15min,AgWx,evansfrm,411,09APR2018:17:00:00,64.4,14.27,55.6,55.9,56.0,56.4,55.5,33,36,31,0.496,27.3,29.2,25.7,6.774,4.5,265,41,10.1,0.00221,0.00288,55.3,48.2,32,383,0,65.0,20.06,0.00,0.00
15min,AgWx,evansfrm,411,09APR2018:17:15:00,63.7,13.97,54.7,55.2,55.8,56.4,55.2,34,37,31,0.480,27.5,30.1,25.2,4.801,5.3,213,24,8.4,0.00197,0.00268,55.5,48.4,32,326,0,60.9,20.06,0.00,0.00
15min,AgWx,evansfrm,411,09APR2018:17:30:00,62.6,13.77,54.7,55.3,55.5,55.8,55.2,33,37,31,0.469,27.1,29.5,25.1,3.244,4.8,228,23,7.5,0.00158,0.00223,55.8,48.4,32,262,0,58.3,20.06,0.00,0.00
15min,AgWx,evansfrm,411,09APR2018:17:45:00,61.6,13.54,54.7,55.2,55.4,55.7,55.2,33,36,31,0.484,26.5,29.0,25.0,4.647,4.6,249,26,8.8,0.00133,0.00195,56.0,49.1,32,222,0,57.4,20.06,0.00,0.00
15min,AgWx,evansfrm,411,09APR2018:18:00:00,60.0,13.26,53.3,53.5,54.2,55.2,53.5,34,37,31,0.494,26.4,27.7,24.6,3.113,4.6,226,21,6.7,0.00097,0.00155,56.1,48.7,32,79,0,55.9,20.06,0.00,0.00
15min,AgWx,evansfrm,411,09APR2018:18:15:00,58.4,13.19,53.4,54.0,53.8,54.2,53.3,31,35,29,0.420,24.2,26.8,22.8,2.061,4.3,218,11,7.5,0.00071,0.00125,56.0,48.9,32,105,0,54.8,20.06,0.00,0.00
15min,AgWx,evansfrm,411,09APR2018:18:30:00,57.2,13.15,52.5,52.8,53.5,54.1,52.7,32,37,29,0.493,24.5,27.3,22.5,3.464,4.0,205,13,6.6,0.00047,0.00096,56.0,49.1,32,83,0,54.8,20.06,0.00,0.00
15min,AgWx,evansfrm,411,09APR2018:18:45:00,55.7,13.11,51.0,51.1,51.9,52.8,51.1,39,43,35,0.539,27.5,29.4,25.3,4.012,3.7,180,12,4.6,0.00013,0.00052,56.0,49.3,32,35,0,53.3,20.06,0.00,0.00
15min,AgWx,evansfrm,411,09APR2018:19:00:00,53.9,13.09,49.8,50.0,50.6,51.1,50.0,41,43,37,0.511,27.7,29.2,25.7,3.99,4.2,173,6.9,6.0,0.00034,0.00076,55.9,49.5,32,8,0,51.1,20.06,0.00,0.00
15min,AgWx,evansfrm,411,09APR2018:19:15:00,52.2,13.08,48.7,48.9,49.3,50.0,48.8,43,46,40,0.538,27.8,28.9,26.1,2.981,3.9,149,10,6.0,0.00014,0.00022,55.7,49.5,32,2,0,49.6,20.06,0.00,0.00
15min,AgWx,evansfrm,411,09APR2018:19:30:00,50.8,13.07,48.1,48.0,48.6,49.1,47.9,42,46,39,0.486,26.6,28.6,24.9,5.502,5.2,148,10,7.5,0.00022,0.00032,55.6,49.5,32,0,0,49.0,20.06,0.00,0.00
15min,AgWx,evansfrm,411,09APR2018:19:45:00,49.6,13.04,48.2,48.4,48.2,48.9,47.4,41,44,37,0.454,25.4,26.9,23.5,7.125,5.8,146,7.4,8.3,0.00026,0.00036,55.3,49.6,32,0,0,48.8,20.06,0.00,0.00
15min,AgWx,evansfrm,411,09APR2018:20:00:00,48.8,13.05,48.4,48.4,48.4,49.1,47.9,40,42,37,0.465,25.0,26.0,23.9,5.393,6.0,137,7.9,8.4,0.00029,0.00039,55.2,50.0,32,0,0,49.0,20.06,0.00,0.00
15min,AgWx,evansfrm,411,09APR2018:20:15:00,48.1,13.04,47.3,47.5,47.6,48.3,47.2,43,45,41,0.498,26.4,27.2,25.4,5.13,5.6,132,9.8,8.3,0.00023,0.00032,54.9,49.6,32,0,0,48.4,20.06,0.00,0.00
15min,AgWx,evansfrm,411,09APR2018:20:30:00,47.3,13.03,46.9,47.0,47.2,47.7,46.5,45,47,43,0.508,27.1,27.9,26.3,4.911,5.2,143,7.7,7.1,0.00020,0.00028,54.7,49.6,32,0,0,47.9,20.06,0.00,0.00
15min,AgWx,evansfrm,411,09APR2018:20:45:00,46.7,13.02,45.5,45.6,46.7,47.7,45.3,47,52,43,0.508,27.4,29.3,26.0,3.376,4.5,133,7.6,7.3,0.00015,0.00022,54.4,49.6,32,0,0,47.5,20.06,0.00,0.00
15min,AgWx,evansfrm,411,09APR2018:21:00:00,45.7,13.02,44.8,45.1,45.0,45.9,44.1,51,54,48,0.505,28.1,29.3,26.8,3.727,3.6,145,28,4.7,0.00006,0.00011,54.2,49.8,32,0,0,45.9,20.06,0.00,0.00
15min,AgWx,evansfrm,411,09APR2018:21:15:00,44.7,13.01,43.7,44.2,43.5,45.1,41.8,56,62,49,0.525,28.7,30.0,27.1,4.406,3.7,148,21,4.7,0.00004,0.00008,53.8,49.8,32,0,0,44.8,20.06,0.00,0.00
15min,AgWx,evansfrm,411,09APR2018:21:30:00,43.6,13,43.0,43.9,42.6,44.3,40.6,58,66,51,0.495,29.0,30.8,26.9,3.617,2.3,138,16,4.2,-0.00006,-0.00005,53.6,49.8,32,0,0,44.0,20.06,0.00,0.00
15min,AgWx,evansfrm,411,09APR2018:21:45:00,43.0,13,42.8,42.8,43.8,45.3,42.4,54,62,48,0.538,28.2,30.5,26.3,4.034,3.5,160,24,4.5,0.00004,0.00008,53.3,49.6,32,0,0,45.4,20.06,0.00,0.00
15min,AgWx,evansfrm,411,09APR2018:22:00:00,42.5,12.99,43.4,44.0,42.8,44.0,41.6,58,62,52,0.528,29.0,30.1,27.1,4.362,4.1,156,17,5.9,0.00005,0.00009,53.1,49.6,32,0,0,44.2,20.06,0.00,0.00
15min,AgWx,evansfrm,411,09APR2018:22:15:00,42.1,12.98,43.4,43.6,43.8,44.6,43.2,54,57,51,0.524,28.5,29.3,27.4,2.959,3.8,164,23,5.3,0.00006,0.00010,52.8,49.6,32,0,0,44.8,20.06,0.00,0.00
15min,AgWx,evansfrm,411,09APR2018:22:30:00,41.6,12.98,42.0,42.6,41.7,43.6,40.8,62,65,55,0.533,29.4,30.3,28.3,1.622,2.7,197,13,3.9,-0.00004,-0.00003,52.5,49.6,32,0,0,43.2,20.06,0.00,0.00
15min,AgWx,evansfrm,411,09APR2018:22:45:00,40.9,12.98,40.5,40.7,41.3,42.6,40.6,63,67,58,0.574,29.6,30.5,28.6,2.433,1.2,170,73,3.0,-0.00017,-0.00022,52.3,49.6,32,0,0,42.7,20.06,0.00,0.00
15min,AgWx,evansfrm,411,09APR2018:23:00:00,40.3,12.93,40.0,40.2,40.2,40.7,39.6,67,69,64,0.563,30.0,31.0,29.2,1.228,1.6,352,22,3.6,-0.00013,-0.00017,52.0,49.3,32,0,0,41.7,20.06,0.00,0.00
15min,AgWx,evansfrm,411,09APR2018:23:15:00,39.8,12.97,40.3,40.5,40.3,40.7,39.9,64,67,63,0.546,29.3,30.0,28.8,0.833,1.1,29,13,2.1,-0.00017,-0.00023,51.9,49.5,32,0,0,42.0,20.06,0.00,0.00
15min,AgWx,evansfrm,411,09APR2018:23:30:00,39.0,12.96,38.8,39.6,39.6,40.5,39.0,66,68,63,0.546,29.3,30.0,28.7,0,0.0,9.3,0.1,1.1,-0.00028,-0.00045,51.7,49.5,32,0,0,41.2,20.06,0.00,0.00
15min,AgWx,evansfrm,411,09APR2018:23:45:00,38.4,12.91,39.7,39.9,39.5,40.0,39.1,65,66,63,0.533,28.7,29.2,28.1,2.784,2.0,56,7.4,3.9,-0.00010,-0.00012,51.4,49.3,32,0,0,41.2,20.06,0.00,0.00
15min,AgWx,drainfrm,410,09APR2018:00:00:00,42.0,12.73,44.0,44.4,42.9,44.4,42.2,66,69,57,0.566,32.4,33.3,30.1,11.64,5.5,293,12,12.4,0.00020,0.00026,45.9,45.1,61,0,100,44.9,18.20,0.00,0.00
15min,AgWx,drainfrm,410,09APR2018:00:15:00,42.2,12.73,43.7,44.0,43.9,44.9,43.2,64,69,55,0.576,32.3,33.8,29.6,9.1,7.5,291,11,11.9,0.00027,0.00033,45.8,45.1,61,0,100,45.6,18.20,0.00,0.00
15min,AgWx,drainfrm,410,09APR2018:00:30:00,42.3,12.73,42.8,43.2,43.5,44.4,43.0,64,67,58,0.611,32.2,33.1,30.4,9.12,8.2,286,8.2,10.5,0.00027,0.00033,45.7,45.1,61,0,100,45.0,18.20,0.00,0.00
15min,AgWx,drainfrm,410,09APR2018:00:45:00,42.3,12.72,42.5,43.0,43.3,43.6,42.9,65,66,62,0.619,32.1,32.7,31.3,7.234,7.5,287,6.5,9.5,0.00026,0.00032,45.5,45.1,61,0,100,44.7,18.20,0.00,0.00
15min,AgWx,drainfrm,410,09APR2018:01:00:00,42.1,12.72,41.4,42.0,42.4,43.3,41.9,70,73,64,0.658,33.2,33.9,31.8,7.782,8.3,274,5.9,10.6,0.00022,0.00027,45.4,45.0,61,0,100,43.8,18.20,0.00,0.00
15min,AgWx,drainfrm,410,09APR2018:01:15:00,41.7,12.72,41.2,41.6,41.4,42.0,40.7,77,80,73,0.671,34.6,35.3,33.7,6.05,6.7,274,6.7,8.0,0.00015,0.00019,45.4,44.6,61,0,100,42.9,18.20,0.00,0.00
15min,AgWx,drainfrm,410,09APR2018:01:30:00,41.1,12.71,39.7,40.2,41.0,41.8,40.2,77,78,75,0.656,34.3,35.0,33.6,4.45,3.5,274,8.1,6.4,0.00010,0.00014,45.4,45.0,61,0,100,41.6,18.20,0.00,0.00
15min,AgWx,drainfrm,410,09APR2018:01:45:00,40.2,12.71,38.3,38.8,39.7,40.4,38.8,80,84,78,0.667,34.1,34.4,34.0,4.362,5.2,262,5.5,6.5,0.00010,0.00013,45.4,45.0,61,0,100,40.6,18.20,0.00,0.00
15min,AgWx,drainfrm,410,09APR2018:02:00:00,39.4,12.7,38.6,39.1,39.0,39.3,38.7,85,86,83,0.690,34.8,35.2,34.3,4.077,3.9,249,4.1,4.6,0.00006,0.00009,45.2,45.0,61,0,100,40.0,18.20,0.00,0.00
15min,AgWx,drainfrm,410,09APR2018:02:15:00,38.6,12.69,36.5,37.2,37.9,39.1,37.0,89,92,85,0.689,34.8,35.1,34.4,4.428,3.3,252,9.1,4.5,0.00004,0.00005,45.1,44.8,61,0,100,38.8,18.20,0.00,0.00
15min,AgWx,drainfrm,410,09APR2018:02:30:00,37.6,12.69,35.3,35.8,36.1,37.2,35.7,93,96,91,0.682,34.2,35.1,33.4,6.007,4.0,290,54,6.0,0.00002,0.00003,45.2,45.0,61,0,100,37.1,18.21,0.00,0.00
15min,AgWx,drainfrm,410,09APR2018:02:45:00,36.9,12.68,37.8,38.4,37.9,39.8,35.8,85,96,76,0.640,33.6,34.9,32.5,2.674,4.6,9.8,29,7.0,0.00007,0.00009,45.1,44.8,61,0,100,38.5,18.20,0.00,0.00
15min,AgWx,drainfrm,410,09APR2018:03:00:00,36.4,12.68,37.0,37.6,38.4,39.5,37.4,82,86,76,0.647,33.3,33.8,32.6,3.398,3.4,28,19,5.7,0.00007,0.00009,45.0,44.6,61,0,100,39.0,18.20,0.00,0.00
15min,AgWx,drainfrm,410,09APR2018:03:15:00,35.9,12.67,36.4,36.9,37.9,38.7,36.9,82,85,78,0.615,32.8,33.7,32.2,4.121,3.3,353,21,4.9,0.00006,0.00009,44.9,44.8,61,0,100,38.5,18.20,0.00,0.00
15min,AgWx,drainfrm,410,09APR2018:03:30:00,35.5,12.67,36.1,36.7,37.4,38.2,36.6,82,85,79,0.627,32.4,32.7,32.0,3.617,4.6,325,10,6.4,0.00008,0.00011,44.7,44.4,61,0,100,38.2,18.20,0.00,0.00
15min,AgWx,drainfrm,410,09APR2018:03:45:00,35.0,12.66,34.4,34.9,35.6,36.8,34.4,89,93,85,0.639,32.6,33.1,32.3,5.722,2.9,10,78,5.9,0.00003,0.00004,44.6,44.8,61,0,100,36.3,18.21,0.00,0.00
15min,AgWx,drainfrm,410,09APR2018:04:00:00,34.7,12.65,37.1,37.6,36.6,37.6,34.9,85,93,80,0.612,32.6,33.4,32.1,3.354,3.6,61,14,6.1,0.00005,0.00007,44.6,44.8,61,0,100,37.1,18.20,0.00,0.00
15min,AgWx,drainfrm,410,09APR2018:04:15:00,34.4,12.64,35.8,36.4,36.9,37.6,36.4,85,87,80,0.617,32.8,33.2,32.0,3.179,4.1,22,12,5.2,0.00006,0.00008,44.4,44.8,61,0,100,37.7,18.20,0.00,0.00
15min,AgWx,drainfrm,410,09APR2018:04:30:00,34.0,12.64,34.0,34.5,35.8,36.8,34.5,86,93,84,0.625,32.1,32.6,31.8,3.749,3.7,360,12,4.8,0.00005,0.00007,44.4,44.6,61,0,100,37.3,18.20,0.00,0.00
15min,AgWx,drainfrm,410,09APR2018:04:45:00,33.6,12.63,33.0,33.7,34.6,35.2,33.7,93,95,91,0.621,32.8,33.3,32.2,3.354,4.4,54,28,5.3,0.00002,0.00003,44.2,44.6,61,0,100,35.5,18.20,0.00,0.00
15min,AgWx,drainfrm,410,09APR2018:05:00:00,33.1,12.63,31.9,32.5,33.5,34.1,32.5,95,97,94,0.606,32.3,32.7,31.8,3.508,2.9,24,67,6.2,0.00001,0.00001,44.2,44.2,61,0,100,34.4,18.21,0.00,0.00
15min,AgWx,drainfrm,410,09APR2018:05:15:00,32.4,12.61,32.2,32.6,32.7,33.0,32.4,97,100,96,0.624,32.0,32.6,31.7,6.445,3.4,306,24,6.4,0.00000,0.00000,44.1,44.6,61,0,100,34.5,18.21,0.00,0.00
15min,AgWx,drainfrm,410,09APR2018:05:30:00,32.1,12.61,32.4,32.9,32.7,32.9,32.4,100,100,99,0.630,32.6,32.9,32.3,4.647,4.9,280,5.9,6.8,-0.00001,-0.00001,44.0,44.6,61,0,100,33.8,18.21,0.00,0.00
15min,AgWx,drainfrm,410,09APR2018:05:45:00,31.8,12.6,31.9,32.6,32.8,33.2,32.5,100,100,99,0.623,32.7,33.1,32.4,2.916,3.5,262,17,4.9,-0.00001,-0.00001,43.9,44.6,61,0,100,33.7,18.21,0.00,0.00
15min,AgWx,drainfrm,410,09APR2018:06:00:00,31.4,12.59,32.2,33.2,33.0,33.2,32.5,100,100,99,0.631,32.8,33.1,32.4,0.877,1.7,264,42,3.2,-0.00001,-0.00001,43.8,44.2,61,4,100,33.6,18.21,0.00,0.00
15min,AgWx,drainfrm,410,09APR2018:06:15:00,31.1,12.58,31.3,31.9,32.7,33.4,31.7,98,100,96,0.606,32.1,32.9,31.3,2.236,1.7,128,46,3.8,-0.00018,-0.00019,43.7,44.6,61,11,100,34.4,18.20,0.00,0.00
15min,AgWx,drainfrm,410,09APR2018:06:30:00,31.1,12.58,33.1,33.8,32.4,33.8,31.8,100,100,100,0.654,32.3,33.7,31.7,1.359,1.8,110,18,3.1,-0.00022,-0.00023,43.7,44.2,61,40,100,34.1,18.21,0.00,0.00
15min,AgWx,drainfrm,410,09APR2018:06:45:00,34.4,12.59,35.6,35.5,34.4,35.5,33.5,98,100,96,0.672,33.9,34.6,33.1,1.425,2.3,149,10,3.2,0.00005,0.00006,43.6,44.2,61,105,100,35.9,18.20,0.00,0.00
15min,AgWx,drainfrm,410,09APR2018:07:00:00,39.4,12.62,37.7,37.5,36.6,37.5,35.5,96,98,95,0.727,35.6,36.4,34.4,2.302,1.4,128,12,2.4,0.00022,0.00024,43.7,44.1,61,142,100,37.8,18.20,0.00,0.00
15min,AgWx,drainfrm,410,09APR2018:07:15:00,43.6,12.69,39.0,39.0,38.1,39.0,37.5,92,96,83,0.674,35.8,36.8,34.2,1.118,2.3,131,11,3.4,0.00043,0.00048,43.6,44.1,61,186,100,41.0,18.20,0.00,0.00
15min,AgWx,drainfrm,410,09APR2018:07:30:00,48.7,12.85,40.2,39.7,39.4,39.9,39.1,81,84,78,0.668,34.0,34.7,33.3,0.965,1.6,163,14,3.0,0.00068,0.00077,43.5,44.2,61,232,100,47.2,18.20,0.00,0.00
15min,AgWx,drainfrm,410,09APR2018:07:45:00,53.5,13.09,40.2,40.1,39.8,40.1,39.4,81,84,79,0.681,34.5,35.7,33.8,1.885,2.0,197,16,3.0,0.00091,0.00102,43.5,44.2,61,281,100,51.3,18.19,0.00,0.00